星链-34671 (STARLINK-34671)

导读 | 豆包AI

STARLINK-34671是美国SpaceX星链星座的卫星,于2025年7月30日发射,星链计划旨在构建全球卫星互联网星座,为全球用户提供低延迟、高速率的宽带网络服务,这颗卫星属于第二代星链卫星,延续了星链星座的技术规格,服务地面网络覆盖薄弱区域,并补充完善星座全球覆盖能力。

基本信息
目录编号:
65033
目录名称:
STARLINK-34671
国际标识:
2025-161U
轨道中心:
EARTH
卫星名称:
星链-34671
卫星全名:
星链-34671 (STARLINK-34671)
卫星状态:
在轨 (已飞行227 天)
发射日期:
2025-07-30 UTC
国别 :
美国 (US)
星等 :
--
轨道信息
数据来源 国际轨道数据 AOE轨道数据
星历时间 2026-03-14T06:11:38+0800
15小时前
查看轨道信息
2026-03-11T15:00:00+0800
3天前
查看轨道信息
半长轴 6853.277km 6853.343km
偏心率 0.0000891 0.0001541
轨道倾角 53.158° 53.158°
近地点辐角 184.738° 69.532°
升交点赤经 274.855° 287.090°
平近点角 175.362° 177.622°
近地点 474.529km 474.149km
远地点 475.751km 476.263km
周期 94.104分钟 94.105分钟
每日圈数 15.302253 15.302032
详细信息
固有亮度:
5
最大亮度:
2.5
卫星平台:
Starlink V1.0
覆盖范围:
全球
运营商:
太空探索技术公司
运营商所在国:
美国
制造商(研发单位):
太空探索技术公司
制造商所在国:
美国
使用方式:
暂无
卫星简介
Starlink 计划是 SpaceX 推出的全球卫星互联网项目,通过发射低轨道卫星,为全球尤其是偏远地区提供高速、低延迟的互联网服务。自 2019 年起,Starlink 已部署数千颗卫星,旨在缩小全球数字鸿沟,推动互联网普及。该项目还为军事、航空等行业提供通信支持,带来广泛经济效益。
2D轨道图
3D轨道图
轨道高度分析图
轨道倾角分析图
轨道综合分析图
查看轨道综合分析图